Location: Godiavel Galaoual
(15.2485°N, 12.6604°W)
Time: 13:33:14
(UTC+00:00)

LightSail 2 - Pass Details

Date: 08 June 2020
Orbit: 691 x 722 km, 24.0° (Epoch: 06 July)

Event Time Altitude Azimuth Distance (km) Brightness Sun altitude
Exits shadow 05:32:21 11° 271° (W) 2,104 7.0 -11.1°
Maximum altitude 05:36:53 37° 205° (SSW) 1,090 5.7 -10.1°
Drops below altitude 10° 05:41:40 10° 137° (SE) 2,191 7.9 -9.1°
Sets 05:44:16 0° 129° (SE) 3,113 8.8 -8.5°
